Time,TemperatureF,DewpointF,PressureIn,WindDirection,WindDirectionDegrees,WindSpeedMPH,WindSpeedGustMPH,Humidity,HourlyPrecipIn,Conditions,Clouds,dailyrainin,SoftwareType,DateUTC
2013-01-01 00:00:00,23.0,17.2,30.20,ENE,67,3.0,7.0,78,0.00,,,0.11,VWS V14.01,2013-01-01 06:00:00,
2013-01-01 00:30:00,22.5,17.0,30.20,SSE,168,0.0,4.0,79,0.00,,,0.00,VWS V14.01,2013-01-01 06:30:00,
2013-01-01 01:00:00,22.0,16.2,30.20,East,87,1.0,12.0,78,0.00,,,0.01,VWS V14.01,2013-01-01 07:00:00,
2013-01-01 01:30:00,21.8,16.0,30.20,East,94,2.0,6.0,78,0.00,,,0.01,VWS V14.01,2013-01-01 07:30:00,
2013-01-01 02:00:00,21.7,15.6,30.21,East,95,0.0,6.0,77,0.01,,,0.01,VWS V14.01,2013-01-01 08:00:00,
2013-01-01 02:30:00,21.7,15.9,30.22,WNW,284,0.0,6.0,78,0.00,,,0.01,VWS V14.01,2013-01-01 08:30:00,
2013-01-01 03:00:00,21.4,15.3,30.23,WNW,294,5.0,5.0,77,0.00,,,0.01,VWS V14.01,2013-01-01 09:00:00,
2013-01-01 03:30:00,21.1,15.3,30.23,NW,307,2.0,6.0,78,0.00,,,0.01,VWS V14.01,2013-01-01 09:30:00,
2013-01-01 04:00:00,20.7,14.9,30.23,NW,304,1.0,7.0,78,0.00,,,0.01,VWS V14.01,2013-01-01 10:00:00,
2013-01-01 04:30:00,20.3,14.6,30.23,WNW,286,0.0,7.0,78,0.00,,,0.01,VWS V14.01,2013-01-01 10:30:00,
2013-01-01 05:00:00,19.7,14.0,30.24,WNW,295,1.0,9.0,78,0.00,,,0.01,VWS V14.01,2013-01-01 11:00:00,
2013-01-01 05:30:00,19.3,13.9,30.22,SE,144,0.0,6.0,79,0.00,,,0.01,VWS V14.01,2013-01-01 11:30:00,
2013-01-01 06:00:00,19.0,13.6,30.23,SE,144,0.0,2.0,79,0.00,,,0.01,VWS V14.01,2013-01-01 12:00:00,
2013-01-01 06:30:00,18.6,13.5,30.21,SE,130,1.0,5.0,80,0.00,,,0.01,VWS V14.01,2013-01-01 12:30:00,
2013-01-01 07:00:00,18.4,13.0,30.22,SSE,164,1.0,7.0,79,0.00,,,0.01,VWS V14.01,2013-01-01 13:00:00,
2013-01-01 07:30:00,18.1,12.4,30.28,WNW,299,0.0,7.0,78,0.00,,,0.01,VWS V14.01,2013-01-01 13:30:00,
2013-01-01 08:00:00,17.6,11.9,30.29,WNW,295,6.0,6.0,78,0.00,,,0.01,VWS V14.01,2013-01-01 14:00:00,
2013-01-01 08:30:00,17.7,12.0,30.30,WNW,288,0.0,9.0,78,0.00,,,0.01,VWS V14.01,2013-01-01 14:30:00,
2013-01-01 09:00:00,17.9,11.9,30.31,WNW,287,4.0,7.0,77,0.00,,,0.01,VWS V14.01,2013-01-01 15:00:00,
2013-01-01 09:30:00,19.0,12.1,30.32,North,355,2.0,8.0,74,0.00,,,0.01,VWS V14.01,2013-01-01 15:30:00,
2013-01-01 10:00:00,19.6,12.1,30.32,WNW,299,0.0,11.0,72,0.00,,,0.01,VWS V14.01,2013-01-01 16:00:00,
2013-01-01 10:30:00,20.2,12.6,30.32,North,355,1.0,9.0,72,0.00,,,0.01,VWS V14.01,2013-01-01 16:30:00,
2013-01-01 11:00:00,20.7,13.1,30.32,NNE,17,3.0,8.0,72,0.00,,,0.01,VWS V14.01,2013-01-01 17:00:00,
2013-01-01 11:30:00,20.2,12.6,30.32,WNW,288,6.0,8.0,72,0.00,,,0.01,VWS V14.01,2013-01-01 17:30:00,
2013-01-01 12:00:00,20.8,12.9,30.30,WNW,286,0.0,9.0,71,0.00,,,0.01,VWS V14.01,2013-01-01 18:00:00,
2013-01-01 12:30:00,22.1,13.2,30.29,WNW,299,0.0,9.0,68,0.00,,,0.01,VWS V14.01,2013-01-01 18:30:00,
2013-01-01 13:00:00,22.5,12.9,30.28,WNW,294,0.0,8.0,66,0.00,,,0.01,VWS V14.01,2013-01-01 19:00:00,
2013-01-01 13:30:00,23.8,13.4,30.28,NW,324,5.0,12.0,64,0.00,,,0.01,VWS V14.01,2013-01-01 19:30:00,
2013-01-01 14:00:00,22.3,12.7,30.27,NNE,21,3.0,7.0,66,0.00,,,0.01,VWS V14.01,2013-01-01 20:00:00,
2013-01-01 14:30:00,21.9,12.6,30.28,North,9,0.0,8.0,67,0.00,,,0.01,VWS V14.01,2013-01-01 20:30:00,
2013-01-01 15:00:00,22.2,12.9,30.28,NW,321,2.0,9.0,67,0.00,,,0.01,VWS V14.01,2013-01-01 21:00:00,
2013-01-01 15:30:00,23.2,12.8,30.29,WNW,288,5.0,11.0,64,0.00,,,0.01,VWS V14.01,2013-01-01 21:30:00,
2013-01-01 16:00:00,21.0,11.8,30.30,WNW,296,1.0,9.0,67,0.00,,,0.01,VWS V14.01,2013-01-01 22:00:00,
2013-01-01 16:30:00,20.5,11.6,30.30,WNW,295,1.0,4.0,68,0.00,,,0.01,VWS V14.01,2013-01-01 22:30:00,
2013-01-01 17:00:00,19.8,11.3,30.30,WNW,295,0.0,2.0,69,0.00,,,0.01,VWS V14.01,2013-01-01 23:00:00,
2013-01-01 17:30:00,19.3,11.1,30.30,WNW,295,0.0,4.0,70,0.00,,,0.01,VWS V14.01,2013-01-01 23:30:00,
2013-01-01 18:00:00,18.5,11.0,30.31,WNW,295,0.0,4.0,72,0.00,,,0.01,VWS V14.01,2013-01-02 00:00:00,
2013-01-01 18:30:00,16.8,10.6,30.33,WNW,295,0.0,1.0,76,0.00,,,0.01,VWS V14.01,2013-01-02 00:30:00,
2013-01-01 19:00:00,15.6,10.0,30.31,WNW,295,0.0,1.0,78,0.00,,,0.01,VWS V14.01,2013-01-02 01:00:00,
2013-01-01 19:30:00,14.7,9.7,30.29,WNW,295,0.0,0.0,80,0.00,,,0.01,VWS V14.01,2013-01-02 01:30:00,
2013-01-01 20:00:00,13.8,9.3,30.30,WNW,295,0.0,1.0,82,0.00,,,0.01,VWS V14.01,2013-01-02 02:00:00,
2013-01-01 20:30:00,12.9,8.7,30.31,WNW,295,0.0,0.0,83,0.00,,,0.01,VWS V14.01,2013-01-02 02:30:00,
2013-01-01 21:00:00,11.8,7.6,30.32,WNW,295,0.0,1.0,83,0.00,,,0.01,VWS V14.01,2013-01-02 03:00:00,
2013-01-01 21:30:00,11.2,7.3,30.30,WNW,295,0.0,1.0,84,0.00,,,0.01,VWS V14.01,2013-01-02 03:30:00,
2013-01-01 22:00:00,10.8,6.9,30.32,WNW,295,0.0,1.0,84,0.00,,,0.01,VWS V14.01,2013-01-02 04:00:00,
2013-01-01 22:30:00,10.1,6.2,30.31,WNW,295,0.0,2.0,84,0.00,,,0.01,VWS V14.01,2013-01-02 04:30:00,
2013-01-01 23:00:00,9.3,5.4,30.31,WNW,295,0.0,1.0,84,0.00,,,0.01,VWS V14.01,2013-01-02 05:00:00,
2013-01-01 23:30:00,9.2,5.4,30.30,WNW,295,0.0,0.0,84,0.00,,,0.01,VWS V14.01,2013-01-02 05:30:00,